Track SBIRS GEO 4 (USA 282) now! SBIRS GEO 4 (USA 282) is classified as:
1 43162U 18009A 25199.38378177 .00000135 00000-0 00000-0 0 9993 2 43162 2.0870 354.6217 0001660 128.4224 152.1500 1.00271415 27496